User: anonymous   Login
Location: Unspecified
(0.0000°N, 0.0000°E)
Time: 01:43:23
(UTC+00:00)
Language:

LATINSAT B - Orbit

View from above orbital plane
View from above orbital plane
View from above satellite
View from above satellite

Ground track
Ground track

The orbit data is extracted from the following two-line orbital elements,

1 27606U 02058B   17348.42360567 -.00000008  00000-0  20458-4 0  9994
2 27606  64.5567 356.6217 0048835  30.5920 329.8012 14.72112463804416
Epoch (UTC): 14 December 2017 10:09:59
Eccentricity: 0.0048835
inclination: 64.5567°
perigee height: 620 km
apogee height: 688 km
right ascension of ascending node: 356.6217°
argument of perigee: 30.5920°
revolutions per day: 14.72112463
mean anomaly at epoch: 329.8012°
orbit number at epoch: 80441

The dashed part of the orbit path shows where the satellite is in the earth's shadow,  

DLR